www.weatherandclimate.eu
WEATHER в Волочанке
Time
(UTC), date
18 13.01
21 13.01
00 14.01
03 14.01
06 14.01
09 14.01
12 14.01
15 14.01
18 14.01
21 14.01
00 15.01
06 15.01
09 15.01
12 15.01
15 15.01
18 15.01
21 15.01
00 16.01
03 16.01
06 16.01
09 16.01
12 16.01
15 16.01
18 16.01
21 16.01
00 17.01
03 17.01
06 17.01
09 17.01
12 17.01
15 17.01
18 17.01
21 17.01
00 18.01
03 18.01
06 18.01
09 18.01
12 18.01
15 18.01
21 18.01
00 19.01
03 19.01
06 19.01
09 19.01
15 19.01
18 19.01
Wind
(dir.,m/s)
Visibility Phenomena Clouds Т
(С)
Тd
(С)
f
(%)
Тe
(С)
Тes
(С)
Comfort P
(hPa)
Po
hPa)
Тmin
(С)
Tmax
(С)
R
(mm)
R24
(mm)
S
(sm)
N 2 10 km slightsnow 4/0 2000 м
[As op]
-33.3 -36.9 70 -41 -41 risk of frostbite 1000.9
N 3 10 km slightsnow 4/0 2000 м
[As op]
-36.0 -39.7 69 -47 -47 risk of frostbite 1003.2
N 3 10 km slightsnow 3/0 2000 м
[As op]
-37.4 -40.7 71 -49 -49 risk of frostbite 1005.7 -37.8 0.7 45
N 2 10 km {snow} 4/0 2000 м
[Ac trans Ci fib]
-38.0 -41.5 69 -47 -47 risk of frostbite 1008.2 -38.3
N 2 10 km {snow} 3/0
[Ci fib]
-40.7 -44.5 67 -50 -50 risk of frostbite 1010.9
NW 3 10 km 1/0
[Ci fib]
-42.9 -46.8 65 -55 -55 risk of frostbite 1013.4
NW 3 10 km ясно -43.4 -47.4 64 -56 -56 risk of frostbite 1017.1 -37.4 0.0
NW 2 10 km diamonddust 3/0
[Ci fib]
-45.5 -48.9 68 -56 -56 risk of frostbite 1018.8
NW 1 10 km diamonddust 1/0
[Ci fib]
-45.4 -48.9 68 -51 -51 risk of frostbite 1020.7
N 2 10 km diamonddust 1/0
[Ci fib]
-47.5 -51.7 62 -58 -58 risk of frostbite 1022.8
NW 1 10 km diamonddust 1/0
[Ci fib]
-47.8 -51.7 64 -54 -54 risk of frostbite 1024.7 -48.1 45
0 10 km 3/0
[Ci fib]
-48.4 -51.7 68 -48 -48 risk of frostbite 1026.4
E 1 10 km 1/0
[Ci fib]
-49.7 -53.0 68 -56 -56 risk of frostbite 1029.2
E 2 10 km 1/0
[Ci fib]
-48.5 -51.7 69 -59 -59 risk of frostbite 1031.1 -47.8
E 2 10 km diamonddust ясно -47.8 -52.4 59 -58 -58 risk of frostbite 1031.3
E 3 10 km ясно -46.6 -51.4 58 -60 -60 risk of frostbite 1031.7
E 3 10 km 3/0
[Ci fib]
-45.3 -48.9 67 -58 -58 risk of frostbite 1031.7
E 2 10 km 3/0
[Ci fib]
-45.2 -48.9 66 -55 -55 risk of frostbite 1031.3 -48.9 45
E 2 10 km 3/0
[Ci fib]
-45.3 -48.9 67 -55 -55 risk of frostbite 1030.3
E 3 50 km 1/0
[Ci fib]
-44.2 -48.3 63 -57 -57 risk of frostbite 1029.3
E 3 10 km diamonddust 1/0
[Ci fib]
-44.6 -48.2 67 -57 -57 risk of frostbite 1029.1
E 3 10 km 4/0
[Ci fib]
-43.8 -47.4 67 -56 -56 risk of frostbite 1028.4 -43.8
E 2 10 km 3/0
[Ci fib]
-43.9 -47.4 68 -54 -54 risk of frostbite 1026.8
E 2 10 km 1/0
[Ci fib]
-43.1 -46.1 72 -53 -53 risk of frostbite 1025.9
E 4 10 km 1/0
[Ci fib]
-41.9 -45.5 68 -56 -56 risk of frostbite 1024.5
E 5 10 km ясно -41.8 -44.9 72 -57 -57 risk of frostbite 1023.2 -44.2 45
E 5 10 km driftingsnow ясно -39.7 -43.5 67 -55 -55 risk of frostbite 1021.3
E 4 10 km {drifting snow} ясно -38.9 -43.1 64 -52 -52 risk of frostbite 1019.6
E 4 10 km {drifting snow} ясно -38.1 -42.3 64 -51 -51 risk of frostbite 1018.0
E 2 10 km {drifting snow} ясно -38.3 -42.3 66 -47 -47 risk of frostbite 1015.7 -38.0
E 3 10 km diamonddust 3/0
[Ci fib]
-33.4 -36.9 71 -44 -44 risk of frostbite 1012.7
E 5 10 km {drifting snow} 1/0
[Ci fib]
-31.6 -35.2 70 -45 -45 risk of frostbite 1010.3
E 4 10 km {drifting snow} 1/0
[Ci fib]
-29.6 -33.3 70 -41 -41 risk of frostbite 1008.5
E 5
{10}
10 km driftingsnow 3/0
[Ci fib]
-28.1 -31.8 70 -40 -40 risk of frostbite 1007.6 -38.6 44
E 7-12
{12}
10 km driftingsnow ясно -28.0 -31.8 70 -42 -42 risk of frostbite 1007.2
E 7-12
{13}
50 km driftingsnow 3/0
[Ci fib]
-28.3 -32.8 65 -42 -42 risk of frostbite 1007.1
E 7-11
{13}
10 km driftingsnow 3/0
[Ci fib]
-28.2 -32.8 65 -42 -42 risk of frostbite 1007.6
E 8-13
{14}
10 km driftingsnow 1/0
[Ci fib]
-28.9 -33.5 64 -44 -44 risk of frostbite 1007.6 -27.9
E 8-12
{14}
10 km heavydriftingsnow 1/0
[Ci fib]
-30.2 -35.5 60 -46 -46 risk of frostbite 1007.8
E 7-11
{14}
10 km driftingsnow ясно -31.8 -37.0 60 -47 -47 risk of frostbite 1008.9
E 8-13
{14}
10 km heavydriftingsnow ясно -32.5 -37.7 60 -49 -49 risk of frostbite 1009.5 -32.6 43
E 5-10
{14}
10 km driftingsnow ясно -32.8 -37.9 60 -46 -46 risk of frostbite 1010.8
E 5
{10}
50 km driftingsnow ясно -34.2 1012.1
E 3 10 km {drifting snow} 1/0
[Ci fib]
-36.2 -40.4 65 -47 -47 risk of frostbite 1014.1
NE 4 10 km ясно -38.2 -41.5 71 -51 -51 risk of frostbite 1015.0
NE 3 10 km ясно -38.7 -42.0 71 -50 -50 risk of frostbite 1016.1
Weather station location Волочанка (Krasnoyarsk territory, Russia): latitude 70.97 longitude 94.50 Height above sea level 40 m.
The archive shows weather in в Волочанке for the last week. For the whole month and for the previous months, starting from January 2011, you can obtain archived data by selecting the date range of interest from the drop-down list and clicking the "Find!".
*Decide who are you:
Attention! The time in the tables is UTC. To get the local time, you must add an amendment that is equal to 7 h.
See also the weather archive in nearby cities and at nearby weather stations:
Partners of our site:
Column explanations:
  • Wind - indicated wind speed in m/s - average for 10 minutes, gusts in time and between periods (in brackets) and the direction from which the wind blows: N - North, NE - North-East, E - East, SE - South-East , S - South, SW - South-West, W - West, NW - North-West.
  • Visibility - horizontal visibility range in meters or kilometers. When visibility is from 1 to 10 km in the absence of precipitation, haze is usually observed, and when visibility is reduced to 1 km or less, fog is observed. In dry weather, visibility may be reduced by smoke, dust, or haze.
  • Phenomena - atmospheric phenomena observed during the period or in the last hour before the period are indicated; curly brackets indicate phenomena observed between periods (1-3 hours before the period); square brackets indicate hail or ice deposits with their diameter in mm.
  • Clouds - are through slash total and lower clouds in points, and the height of the lower border of the cloud in meters; square brackets contain cloud forms: Ci - Cirrus, Cs - Cirrostratus, Cc - Cirrocumulus, Ac - Altocumulus, As - Altostratus, Sc - Stratocumulus, Ns - Nimbostratus, Cu - Cumulus, Cb - Cumulonimbus. For more information about cloud classification, see the cloud Atlas (PDF).
  • T - Air temperature - temperature measured at a height of 2 m above the ground.
  • Td - Dew point temperature - the temperature is lowered to that contained in the air, the water vapor reaches saturation.
  • f - Relative humidity measured at a height of 2 m above the ground.
  • Te - Effective temperature is the temperature that a seasonally dressed person feels in the shade. Characteristic of stuffy weather. The calculation takes into account the influence of air humidity and wind speed on a person’s heat.
  • Tes - Effective sun temperature - the temperature that a person feels, adjusted for solar heating. Characteristics of the sultry weather. Depends on the height of the sun above the horizon, cloud cover and wind speed. At night, in cloudy weather, as well as in winds of 12 m/s or more, the correction is zero.
  • P - Atmospheric pressure - atmospheric pressure reduced to sea level.
  • Po - Atmospheric pressure - atmospheric pressure measured at the station level.
  • Tmin - Minimum temperature - minimum air temperature at a height of 2 m above the ground.
  • Tmax - Maximum temperature - maximum air temperature at a height of 2 m above the ground.
  • R - Precipitation - The amount of precipitation over a period of time, mm. When you hover over the number, the time period for which the specified amount of precipitation has fallen.
  • R24 - Количество осадков - The amount of precipitation in 24 hours, mm.
  • S - Snow cover - The height of the snow cover. When you hover the mouse over the number - the state of the snow cover and the degree of coverage in points.